Location: Tucson
(32.2217°N, 110.9265°W)
Time: 07:49:39
(UTC-07:00)

Tiros 1 - Pass Details

Date: 29 October 2021
Orbit: 629 x 664 km, 48.4° (Epoch: 26 November)

Event Time Altitude Azimuth Distance (km) Brightness Sun altitude
Rises 07:09:02 0° 219° (SW) 2,978 10.4 5.3°
Reaches altitude 10° 07:11:24 10° 216° (SW) 2,069 9.6 5.8°
Maximum altitude 07:16:06 61° 137° (SE) 750 8.1 6.7°
Drops below altitude 10° 07:20:49 10° 57° (ENE) 2,072 10.3 7.6°
Sets 07:23:11 0° 54° (NE) 2,983 11.0 8.1°
